Regional Weather Roundup
Issued by NWS

Home | Current Version | Previous Version | Text Only | Print | Product List | Glossary On
Versions: 1 2 3 4 5 6 7 8 9 10 11 12 13 14 15 16 17 18 19 20 21 22 23 24 25 26 27 28 29 30 31 32 33 34 35 36 37 38 39 40 41 42 43 44 45 46 47 48 49 50
000
ASUS44 KFWD 190101
RWRTX
NORTH TEXAS HOURLY WEATHER ROUNDUP
NATIONAL WEATHER SERVICE FORT WORTH TX
700 PM CST SUN FEB 18 2018

NOTE: "FAIR" INDICATES FEW OR NO CLOUDS BELOW 12,000 FEET WITH NO
SIGNIFICANT WEATHER AND/OR OBSTRUCTIONS TO VISIBILITY.

TXZ118-119-190200-
DALLAS/FORT WORTH METROPLEX

CITY           SKY/WX    TMP DP  RH WIND       PRES   REMARKS
DFW AIRPORT    CLOUDY    63  60  90 S12       29.89R
DALLAS LOVE    CLOUDY    62  60  93 S10       29.90S FOG
FTW MEACHAM    CLOUDY    63  61  93 S12G22    29.89R
DAL-EXECUTIVE  CLOUDY    62  61  96 S9        29.90R FOG
FTW-ALLIANCE   CLOUDY    62  60  93 S14       29.88S
FTW-NAS-JRB    CLOUDY    61  58  90 S18       29.89S
FTW-SPINKS     CLOUDY    61  59  94 S10G18    29.92R FOG
ARLINGTON      CLOUDY    60  60 100 S9        29.90R
GRAND PRAIRIE  CLOUDY    61  61 100 S12       29.91S
MESQUITE       CLOUDY    61  59  94 SE9       29.92R FOG
LANCASTER      CLOUDY    61  59  94 SE3       29.92R FOG
$$

TXZ091>094-102>105-117-120-121-131>134-190200-
NORTH CENTRAL TEXAS

CITY           SKY/WX    TMP DP  RH WIND       PRES   REMARKS
SHRMAN/DENISON CLOUDY    56  56  97 SE12      29.90S FOG
GAINESVILLE    CLOUDY    56  54  92 S9        29.89S
BOWIE          CLOUDY    61  58  90 SE14G21   29.83F
BRIDGEPORT     CLOUDY    63  58  85 S12G18    29.87F
DECATUR        CLOUDY    61  58  90 S15G29    29.85F
DENTON         CLOUDY    61  60  97 S13       29.89R
MCKINNEY       CLOUDY    59  59 100 SE7       29.91S
BONHAM         CLOUDY    55  55  97 SE8       29.92S FOG
ROCKWALL       CLOUDY    60  60 100 S6        29.92R FOG
TERRELL        CLOUDY    63  60  90 S12       29.92R
WAXAHACHIE     CLOUDY    60  60 100 S7        29.92R FOG
CLEBURNE       FOG       59  59 100 S12       29.92S VSB 1/4
GRANBURY       CLOUDY    63  59  88 S10G16    29.90S
$$

TXZ083>090-098>101-113>116-127>130-139>142-154-155-190200-
WESTERN NORTH TEXAS

CITY           SKY/WX    TMP DP  RH WIND       PRES   REMARKS
WICHITA FALLS  FAIR      63  57  81 S17       29.77S
WF-KICKAPOO    FAIR      64  58  82 SE17G24   29.80F
VERNON         FAIR      70  53  54 S23G33    29.72R
ABILENE        FAIR      67  60  78 S16       29.83R
BRECKENRIDGE   FAIR      68  58  68 S18G25    29.84R HAZE
CISCO          FAIR      66  59  77 S16G23    29.86R
EASTLAND       FAIR      64  58  81 S12G22    29.86S
RANGER         FAIR      64  60  86 S10G21    29.87F
MINERAL WELLS  CLOUDY    63  58  83 S18G24    29.86R
STEPHENVILLE   CLOUDY    61  57  87 S10       29.93R
COMANCHE       FAIR      64  61  89 S9        29.89R
COLEMAN        FAIR      67  58  74 S15       29.88S
$$

TXZ143>147-156>162-174-175-190200-
CENTRAL TEXAS

CITY           SKY/WX    TMP DP  RH WIND       PRES   REMARKS
WACO           FAIR      56  55  97 N3        29.90F FOG
WACO-TSTC      MOCLDY    57  57 100 CALM      29.90F FOG
WACO-MCGREGOR  FAIR      62  60  93 CALM      29.90F
HILLSBORO      FOG       61  61 100 S6        29.90F VSB 1/2
CORSICANA      FAIR      59  58  96 E6        29.92F FOG
MEXIA          FAIR      66  63  90 SE7       29.91S
HEARNE         FAIR      72  63  73 SE10G17   29.95S
CAMERON        FAIR      73  63  70 S10G18    29.92S
TEMPLE         FAIR      69  63  81 S14       29.90F
KILLEEN        NOT AVBL
KILLEEN-SKYLRK FAIR      69  63  81 SE14      29.89F
FORT HOOD      FAIR      67  62  86 SE10      29.86F
GATESVILLE     FAIR      59  59 100 CALM      29.91F FOG
HAMILTON       MOCLDY    62  62 100 S9        29.91S
LAMPASAS       FAIR      64  61  88 S3        29.90F
$$

TXZ095>097-106>112-122>126-135>138-148>153-164>167-190200-
EAST TEXAS

CITY           SKY/WX    TMP DP  RH WIND       PRES   REMARKS
PARIS          CLOUDY    53  53 100 E9        29.95F FOG
SULPHUR SPRNGS CLOUDY    60  59  98 CALM      29.95F
MOUNT PLEASANT CLOUDY    59  58  95 SE8       29.96F
GILMER         CLOUDY    60  59  97 SE7       29.95S
MINEOLA        CLOUDY    61  59  94 SE7       29.92F
TYLER          FAIR      64  62  93 SE13      29.93F
LONGVIEW       CLOUDY    61  61 100 SE12      29.96F
MARSHALL       FAIR      60  58  92 SE6       29.99F
ATHENS         FAIR      59  59 100 SE3       29.92S
PALESTINE      FAIR      68  64  87 SE8       29.95S
JACKSONVILLE   FAIR      65  64  94 SE9       29.97F
HENDERSON      FAIR      64  62  93 SE8       29.97S
CENTER         FAIR      62  60  95 E10       30.01F
NACOGDOCHES    FAIR      67  63  87 SE8       29.99F
LUFKIN         FAIR      69  63  81 SE12      29.99F
$$

SUPPLEMENTAL OBSERVATIONS (NWS FORT WORTH AREA)

CITY           SKY/WX    TMP DP  RH WIND       PRES   REMARKS
$$

SUPPLEMENTAL OBSERVATIONS (NWS NORMAN AREA)

CITY           SKY/WX    TMP DP  RH WIND       PRES   REMARKS
GOODLETT         N/A     72  55  55 S15       29.68S
ODELL            N/A     69  57  65 SE21      29.72R
CROWELL          N/A     72  60  65 S22       29.73R
KNOX CITY        N/A     73  58  59 S24G31    29.76R
SEYMOUR          N/A     68  58  70 SE21G28   29.76S
$$

SUPPLEMENTAL OBSERVATIONS (NWS SAN ANGELO AREA)

CITY           SKY/WX    TMP DP  RH WIND       PRES   REMARKS
WEINERT          N/A     70  60  70 S21       29.77S
HASKELL          N/A     72  58  60 S18G28    29.78S
THROCKMORTON     N/A     65  59  82 S9        29.82R
STAMFORD         N/A     71  61  71 S24       29.81R
CLYDE            N/A     66  60  81 S13       29.86S
$$

SUPPLEMENTAL OBSERVATIONS (NWS SHREVEPORT AREA)

CITY           SKY/WX    TMP DP  RH WIND       PRES   REMARKS
$$

SUPPLEMENTAL OBSERVATIONS ARE A COLLECTION OF AUTOMATED INSTRUMENTS
THAT ARE MAINTAINED BY A VARIETY OF FEDERAL AND STATE AGENCIES.
CERTAIN ELEMENTS...SUCH AS HUMIDITY VALUES AND SUSTAINED WIND
SPEEDS...MAY BE APPROXIMATED.





USA.gov is the U.S. government's official web portal to all federal, state and local government web resources and services.